Regional Weather Roundup
Issued by NWS Sterling, VA

Home | Current Version | Previous Version | Text Only | Print | Product List | Glossary On
Versions: 1 2 3 4 5 6 7 8 9 10 11 12 13 14 15 16 17 18 19 20 21 22 23 24 25 26 27 28 29 30 31 32 33 34 35 36 37 38 39 40 41 42 43 44 45 46 47 48 49 50
000
ASUS41 KLWX 051810
RWRLWX

REGIONAL WEATHER ROUNDUP
NATIONAL WEATHER SERVICE BALTIMORE MD/WASHINGTON DC
200 PM EDT TUE MAY 05 2015

Note: "FAIR" indicates few or no clouds below 12,000 feet
with no significant weather and/or obstructions to visibility.
 TC=TEMPERATURE CELSIUS

 * =Non NWS site. Station does not report precipitation (e.g. rain,
    snow, etc.), thunder, or fog.

DCZ001-MDZ009-015-VAZ040>042-051-053>054-051900-
WASHINGTON METRO

CITY           SKY/WX    TMP DP  RH WIND       PRES   REMARKS
WASHINGTON NAT MOSUNNY   81  61  50 S6        30.23F
DULLES         MOSUNNY   82  57  42 S3        30.23F
ANDREWS AFB    SUNNY     83  57  40 NW7       30.23F
FT BELVOIR     SUNNY     82  59  45 VRB3      30.23F
QUANTICO       MOSUNNY   77  59  53 S9        30.24F
COLLEGE PARK*  SUNNY     82  54  36 NW3       30.22F
LEESBURG*      MOSUNNY   82  61  47 S9        30.24F
MANASSAS*      SUNNY     82  54  36 CALM      30.23F
GAITHERSBURG*  SUNNY     81  59  47 CALM      30.28S

$$

MDZ006>007-011-014-051900-
BALTIMORE METRO

CITY           SKY/WX    TMP DP  RH WIND       PRES   REMARKS
BWI AIRPORT    PTSUNNY   83  57  41 NE3       30.22F
MD SCIENCE CTR   N/A     83  56  39 MISG      30.23F
MARTIN STATE   MOSUNNY   77  63  61 SE9       30.25F
ANNAPOLIS      MOSUNNY   74  59  59 SE10      30.23F
FORT MEADE*    MOSUNNY   81  55  41 E3        30.25F

$$

MDZ012-015-019>023-051900-
MARYLAND EASTERN SHORE

CITY           SKY/WX    TMP DP  RH WIND       PRES   REMARKS
OCEAN CITY     SUNNY     71  57  61 S10       30.25F
SALISBURY      SUNNY     80  57  45 SW10      30.24F
BAY BRIDGE AP*   N/A    N/A N/A N/A S5        30.24F
CAMBRIDGE*     SUNNY     81  59  47 SE5       30.24F
EASTON*        MOSUNNY   82  59  44 SW7       30.28F

$$

MDZ017>025-051900-
SOUTHERN MARYLAND

CITY           SKY/WX    TMP DP  RH WIND       PRES   REMARKS
PATUXENT RIVER MOSUNNY   76  61  59 SE9       30.24F
ST INIGOES     SUNNY     80  58  46 S7        30.24F
LEONARDTOWN*   SUNNY     82  55  39 S6        30.25F

$$

MDZ003>005-051900-
NORTH CENTRAL MARYLAND

CITY           SKY/WX    TMP DP  RH WIND       PRES   REMARKS
FREDERICK*     MOSUNNY   84  50  30 NW6       30.26F
HAGERSTOWN APT MOSUNNY   78  58  49 NE3       30.25F
WESTMINSTER*   MOSUNNY   77  57  50 NW5       30.26F

$$

MDZ501>502-051900-
WESTERN MARYLAND

CITY           SKY/WX    TMP DP  RH WIND       PRES   REMARKS
OAKLAND*       CLOUDY    70  54  56 NW6G18    30.33F
CUMBERLAND*    MOSUNNY   79  55  44 E5        30.27F

$$

VAZ025>031-051900-
SHENANDOAH VALLEY

CITY           SKY/WX    TMP DP  RH WIND       PRES   REMARKS
WINCHESTER*    MOSUNNY   81  45  28 SE3       30.24F
FRONT ROYAL*   FAIR      82  57  42 CALM      30.23F
LURAY*         FAIR      84  55  37 S5        30.23F
NEW MARKET*    FAIR      81  56  42 SW5       30.22F
STAUNTON*      MOSUNNY   83  50  31 SE7       30.26F
WAYNESBORO*    FAIR      81  52  36 SW7       30.26F

$$

WVZ021-048>050-054>055-051900-
EASTERN WEST VIRGINIA PANHANDLE

CITY           SKY/WX    TMP DP  RH WIND       PRES   REMARKS
MARTINSBURG    CLOUDY    78  58  49 NE6       30.24F
PETERSBURG*    PTSUNNY   69  59  70 SE8       30.29F

$$

VAZ036>039-050-051900-
CENTRAL FOOTHILLS

CITY           SKY/WX    TMP DP  RH WIND       PRES   REMARKS
CHARLOTTESVILL SUNNY     84  51  31 CALM      30.23F
CULPEPER*      SUNNY     83  56  39 S3        30.23F
ORANGE*        SUNNY     82  55  39 CALM      30.25F
GORDONSVILLE*  FAIR      84  55  37 CALM      30.22F
WARRENTON*     FAIR      87  57  36 CALM      30.23F

$$

VAZ055>057-051900-
NORTH AND CENTRAL PIEDMONT

CITY           SKY/WX    TMP DP  RH WIND       PRES   REMARKS
FREDERICKSBRG* SUNNY     87  58  37 E5        30.22F
STAFFORD*      SUNNY     83  52  33 S3        30.27F

$$

NCZ024-NYZ072-PAZ021-071-VAZ022-071-051900-
OTHER REGIONAL OBSERVATIONS

CITY           SKY/WX    TMP DP  RH WIND       PRES   REMARKS
NEW YORK CITY  PTSUNNY   80  53  39 VRB6      30.22F
PHILADELPHIA   MOSUNNY   81  55  40 SW7       30.21F
PITTSBURGH     CLOUDY    69  60  73 SW6       30.28S
ROANOKE        PTSUNNY   80  52  37 W3        30.28F
RICHMOND       MOSUNNY   82  59  45 S6        30.25F
RALEIGH        MOSUNNY   80  58  46 SW10      30.30F

$$

ANZ530>537-051900-
MARINE OBSERVATIONS

STATION/POSITION TIME  TEMP    WIND        PRES
                       AIR SEA DIR/SP/G
                 (UTC) (F)     (DEG/KT/KT) (MB)
THOMAS PT LIGHT  1800   71 60  160/ 11/ 11 1024.4F
BALT KEY BRIDGE  1700   71     110/  7/  8 1023.9F
COVE POINT       1700   67     160/ 12/ 12 1025.3F
LEWISETTA        1700   76 61              1024.4F
SOLOMONS ISLAND  1700      62                N/A
PINEY POINT      1700          140/  4/  5   N/A

$$




USA.gov is the U.S. government's official web portal to all federal, state and local government web resources and services.